Regional Weather Roundup
Issued by NWS

Home | Current Version | Previous Version | Text Only | Print | Product List | Glossary Off
Versions: 1 2 3 4 5 6 7 8 9 10 11 12 13 14 15 16 17 18 19 20 21 22 23 24 25 26 27 28 29 30 31 32 33 34 35 36 37 38 39 40 41 42 43 44 45 46 47 48 49 50

000
ASUS43 KBIS 251859
RWRND

NORTH DAKOTA REGIONAL WEATHER ROUNDUP
NATIONAL WEATHER SERVICE BISMARCK ND
200 PM CDT SAT OCT 25 2014

NOTE: "FAIR" INDICATES FEW OR NO CLOUDS BELOW 12,000 FEET WITH NO
SIGNIFICANT WEATHER AND/OR OBSTRUCTIONS TO VISIBILITY.


NDZ001>003-009>011-017-252000-
NORTHWEST NORTH DAKOTA

CITY           SKY/WX    TMP DP  RH WIND       PRES   REMARKS
WILLISTON      SUNNY     59  28  30 SE7       30.06F
MINOT          SUNNY     58  25  28 S6        30.08F
$$

NDZ018>021-031>035-040>046-252000-
SOUTHWEST NORTH DAKOTA

CITY           SKY/WX    TMP DP  RH WIND       PRES   REMARKS
BISMARCK       SUNNY     62  31  31 SE6       30.12F
GARRISON         N/A     59  31  34 VRB7      30.10F
HETTINGER ARPT SUNNY     63  29  27 SE14      30.09F
$$

NDZ004>008-012>016-024-026-027-054-252000-
NORTHEAST NORTH DAKOTA

CITY           SKY/WX    TMP DP  RH WIND       PRES   REMARKS
GRAND FORKS    MOSUNNY   59  25  27 NW17G23   30.06F
DEVILS LAKE    SUNNY     55  28  35 W13       30.08F
$$

NDZ022-023-025-028>030-036>039-047>053-252000-
SOUTHEAST NORTH DAKOTA

CITY           SKY/WX    TMP DP  RH WIND       PRES   REMARKS
FARGO          SUNNY     60  28  29 NW15      30.09F
$$




USA.gov is the U.S. government's official web portal to all federal, state and local government web resources and services.